Météo par heure à Almaya

Ce jour, 15 Mai, Samedi

Heure Température Précipitation Vent Pression Humidité
00:00 +12°C° 0 mm 1 m/s 544 mmHg 81%
01:00 +11°C° 0 mm 0 m/s 544 mmHg 83%
02:00 +11°C° 0 mm 0 m/s 543 mmHg 84%
03:00 +10°C° 0 mm 0 m/s 543 mmHg 85%
04:00 +10°C° 0 mm 0 m/s 543 mmHg 86%
05:00 +10°C° 0 mm 0 m/s 543 mmHg 87%
06:00 +13°C° 0 mm 1 m/s 544 mmHg 79%
07:00 +14°C° 0 mm 1 m/s 545 mmHg 72%
08:00 +16°C° 0 mm 1 m/s 546 mmHg 64%
09:00 +18°C° 0.2 mm 1 m/s 547 mmHg 58%
10:00 +20°C° 0.2 mm 1 m/s 547 mmHg 52%
11:00 +20°C° 0.2 mm 2 m/s 547 mmHg 46%
12:00 +20°C° 0.9 mm 2 m/s 547 mmHg 48%
13:00 +20°C° 0.9 mm 1 m/s 546 mmHg 50%
14:00 +19°C° 0.9 mm 1 m/s 545 mmHg 52%
15:00 +18°C° 1.6 mm 1 m/s 545 mmHg 56%
16:00 +16°C° 1.6 mm 1 m/s 544 mmHg 59%
17:00 +15°C° 1.6 mm 1 m/s 544 mmHg 63%
18:00 +14°C° 0.3 mm 1 m/s 544 mmHg 67%
19:00 +14°C° 0.3 mm 1 m/s 543 mmHg 72%
20:00 +13°C° 0.3 mm 1 m/s 543 mmHg 77%
21:00 +13°C° 1.5 mm 2 m/s 543 mmHg 79%
22:00 +12°C° 1.5 mm 2 m/s 544 mmHg 81%
23:00 +12°C° 1.5 mm 2 m/s 544 mmHg 84%

Demain, 16 Mai, Dimanche

Heure Température Précipitation Vent Pression Humidité
00:00 +10°C° 3.6 mm 3 m/s 544 mmHg 85%
01:00 +10°C° 3.6 mm 3 m/s 544 mmHg 86%
02:00 +9°C° 3.6 mm 3 m/s 543 mmHg 87%
03:00 +9°C° 0.8 mm 2 m/s 543 mmHg 86%
04:00 +10°C° 0.8 mm 2 m/s 543 mmHg 84%
05:00 +11°C° 0.8 mm 1 m/s 543 mmHg 82%
06:00 +12°C° 0 mm 1 m/s 544 mmHg 75%
07:00 +14°C° 0 mm 1 m/s 545 mmHg 68%
08:00 +15°C° 0 mm 1 m/s 546 mmHg 61%
09:00 +18°C° 0 mm 1 m/s 546 mmHg 56%
10:00 +19°C° 0 mm 1 m/s 547 mmHg 51%
11:00 +21°C° 0 mm 1 m/s 547 mmHg 46%
12:00 +21°C° 0.2 mm 1 m/s 547 mmHg 46%
13:00 +21°C° 0.2 mm 1 m/s 546 mmHg 46%
14:00 +21°C° 0.2 mm 1 m/s 545 mmHg 46%
15:00 +19°C° 0.7 mm 1 m/s 545 mmHg 53%
16:00 +17°C° 0.7 mm 2 m/s 544 mmHg 61%
17:00 +15°C° 0.7 mm 2 m/s 544 mmHg 68%
18:00 +14°C° 0.8 mm 2 m/s 544 mmHg 71%
19:00 +13°C° 0.8 mm 1 m/s 544 mmHg 74%
20:00 +12°C° 0.8 mm 1 m/s 544 mmHg 77%
21:00 +12°C° 0 mm 1 m/s 544 mmHg 76%
22:00 +12°C° 0 mm 1 m/s 544 mmHg 74%
23:00 +11°C° 0 mm 0 m/s 544 mmHg 73%

Après-demain, 17 Mai, Lundi

Heure Température Précipitation Vent Pression Humidité
00:00 +11°C° 0 mm 0 m/s 543 mmHg 73%
01:00 +11°C° 0 mm 0 m/s 543 mmHg 74%
02:00 +11°C° 0 mm 0 m/s 543 mmHg 74%
03:00 +11°C° 0 mm 0 m/s 543 mmHg 74%
04:00 +11°C° 0 mm 0 m/s 543 mmHg 75%
05:00 +10°C° 0 mm 0 m/s 542 mmHg 75%
06:00 +13°C° 0 mm 1 m/s 544 mmHg 69%
07:00 +15°C° 0 mm 1 m/s 545 mmHg 63%
08:00 +18°C° 0 mm 1 m/s 546 mmHg 57%
09:00 +19°C° 0.1 mm 1 m/s 546 mmHg 51%
10:00 +21°C° 0.1 mm 1 m/s 547 mmHg 44%
11:00 +21°C° 0.1 mm 2 m/s 547 mmHg 38%
12:00 +21°C° 0.3 mm 2 m/s 546 mmHg 39%
13:00 +21°C° 0.3 mm 2 m/s 546 mmHg 39%
14:00 +21°C° 0.3 mm 1 m/s 545 mmHg 40%
15:00 +20°C° 0.3 mm 1 m/s 545 mmHg 45%
16:00 +18°C° 0.3 mm 2 m/s 545 mmHg 49%
17:00 +18°C° 0.3 mm 2 m/s 544 mmHg 54%
18:00 +18°C° 0.1 mm 1 m/s 544 mmHg 59%
19:00 +16°C° 0.1 mm 1 m/s 544 mmHg 63%
20:00 +15°C° 0.1 mm 1 m/s 544 mmHg 68%
21:00 +14°C° 0.1 mm 1 m/s 544 mmHg 70%
22:00 +14°C° 0.1 mm 1 m/s 544 mmHg 72%
23:00 +13°C° 0.1 mm 1 m/s 544 mmHg 74%

18 Mai, Mardi

Heure Température Précipitation Vent Pression Humidité
00:00 +13°C° 0.2 mm 1 m/s 543 mmHg 74%
01:00 +13°C° 0.2 mm 1 m/s 543 mmHg 75%
02:00 +13°C° 0.2 mm 1 m/s 543 mmHg 75%
03:00 +12°C° 0.2 mm 1 m/s 543 mmHg 76%
04:00 +11°C° 0.2 mm 0 m/s 543 mmHg 77%
05:00 +11°C° 0.2 mm 0 m/s 543 mmHg 77%
06:00 +13°C° 0.1 mm 0 m/s 544 mmHg 70%
07:00 +15°C° 0.1 mm 1 m/s 545 mmHg 64%
08:00 +18°C° 0.1 mm 1 m/s 546 mmHg 57%
09:00 +19°C° 0.4 mm 1 m/s 546 mmHg 53%
10:00 +20°C° 0.4 mm 1 m/s 546 mmHg 49%
11:00 +21°C° 0.4 mm 1 m/s 546 mmHg 44%
12:00 +20°C° 0.5 mm 2 m/s 546 mmHg 46%
13:00 +20°C° 0.5 mm 2 m/s 545 mmHg 47%
14:00 +19°C° 0.5 mm 2 m/s 545 mmHg 48%
15:00 +19°C° 0.5 mm 2 m/s 544 mmHg 50%
16:00 +18°C° 0.5 mm 2 m/s 544 mmHg 53%
17:00 +18°C° 0.5 mm 2 m/s 544 mmHg 56%
18:00 +17°C° 0.2 mm 2 m/s 543 mmHg 61%
19:00 +15°C° 0.2 mm 2 m/s 543 mmHg 67%
20:00 +14°C° 0.2 mm 1 m/s 543 mmHg 73%
21:00 +14°C° 0.1 mm 1 m/s 543 mmHg 74%
22:00 +13°C° 0.1 mm 1 m/s 543 mmHg 75%
23:00 +13°C° 0.1 mm 1 m/s 543 mmHg 76%

19 Mai, Mercredi

Heure Température Précipitation Vent Pression Humidité
00:00 +13°C° 0 mm 1 m/s 542 mmHg 77%
01:00 +12°C° 0 mm 1 m/s 542 mmHg 78%
02:00 +12°C° 0 mm 1 m/s 542 mmHg 79%
03:00 +12°C° 0 mm 1 m/s 542 mmHg 78%
04:00 +12°C° 0 mm 1 m/s 542 mmHg 78%
05:00 +12°C° 0 mm 1 m/s 542 mmHg 77%
06:00 +14°C° 0 mm 1 m/s 543 mmHg 68%
07:00 +16°C° 0 mm 1 m/s 544 mmHg 60%
08:00 +19°C° 0 mm 1 m/s 545 mmHg 51%
09:00 +20°C° 0 mm 1 m/s 546 mmHg 46%
10:00 +21°C° 0 mm 1 m/s 546 mmHg 41%
11:00 +23°C° 0 mm 2 m/s 547 mmHg 36%
12:00 +23°C° 0.1 mm 2 m/s 546 mmHg 37%
13:00 +23°C° 0.1 mm 2 m/s 545 mmHg 38%
14:00 +21°C° 0.1 mm 3 m/s 545 mmHg 38%
15:00 +21°C° 0.3 mm 2 m/s 544 mmHg 41%
16:00 +20°C° 0.3 mm 2 m/s 544 mmHg 44%
17:00 +20°C° 0.3 mm 1 m/s 543 mmHg 47%
18:00 +19°C° 0.1 mm 1 m/s 543 mmHg 51%
19:00 +18°C° 0.1 mm 1 m/s 543 mmHg 56%
20:00 +15°C° 0.1 mm 0 m/s 543 mmHg 60%
21:00 +15°C° 0.1 mm 1 m/s 543 mmHg 63%
22:00 +15°C° 0.1 mm 1 m/s 543 mmHg 66%
23:00 +14°C° 0.1 mm 1 m/s 543 mmHg 69%

20 Mai, Jeudi

Heure Température Précipitation Vent Pression Humidité
00:00 +14°C° 0.2 mm 1 m/s 543 mmHg 71%
01:00 +13°C° 0.2 mm 1 m/s 542 mmHg 74%
02:00 +13°C° 0.2 mm 1 m/s 542 mmHg 77%
03:00 +12°C° 0.1 mm 1 m/s 542 mmHg 76%
04:00 +12°C° 0.1 mm 1 m/s 542 mmHg 76%
05:00 +11°C° 0.1 mm 0 m/s 542 mmHg 75%
06:00 +14°C° 0 mm 1 m/s 543 mmHg 68%
07:00 +16°C° 0 mm 1 m/s 544 mmHg 62%
08:00 +19°C° 0 mm 1 m/s 545 mmHg 55%
09:00 +20°C° 0.1 mm 1 m/s 546 mmHg 50%
10:00 +21°C° 0.1 mm 1 m/s 546 mmHg 44%
11:00 +23°C° 0.1 mm 2 m/s 547 mmHg 39%
12:00 +23°C° 0.3 mm 2 m/s 546 mmHg 40%
13:00 +21°C° 0.3 mm 2 m/s 545 mmHg 41%
14:00 +21°C° 0.3 mm 2 m/s 545 mmHg 42%
15:00 +20°C° 0.3 mm 2 m/s 545 mmHg 45%
16:00 +20°C° 0.3 mm 2 m/s 544 mmHg 48%
17:00 +19°C° 0.3 mm 2 m/s 544 mmHg 51%
18:00 +18°C° 0.4 mm 2 m/s 544 mmHg 57%
19:00 +16°C° 0.4 mm 1 m/s 544 mmHg 63%
20:00 +14°C° 0.4 mm 0 m/s 543 mmHg 69%
21:00 +15°C° 0.5 mm 1 m/s 543 mmHg 70%
22:00 +14°C° 0.5 mm 1 m/s 543 mmHg 72%
23:00 +14°C° 0.5 mm 1 m/s 543 mmHg 74%
Voir plus

Nous avons besoin de votre consentement

Meteoprog et ses fournisseurs de services peuvent stocker et accéder à des données personnelles telles que des cookies, des identifiants d'appareils ou d'autres technologies similaires sur votre appareil et traiter ces données pour personnaliser le contenu et les publicités, ainsi que pour fournir des fonctionnalités de médias sociaux et analyser le trafic.

  • Stocker et/ou accéder à des informations sur votre appareil

    Des cookies, des identifiants d'appareils ou d'autres informations peuvent être stockés ou accessibles sur votre appareil aux fins indiquées ci-dessus.

  • Annonces et contenus personnalisés, mesure des annonces et des contenus, connaissance de l'audience et développement de produits

    Les annonces et le contenu peuvent être personnalisés en fonction d'un profil. D'autres données peuvent être ajoutées pour mieux personnaliser les annonces et le contenu. Les performances des publicités et du contenu peuvent être mesurées. Il est possible d'obtenir des informations sur le public qui a vu les publicités et le contenu. Ces données peuvent être utilisées pour développer ou améliorer l'expérience de l'utilisateur, les systèmes et les logiciels.

En cliquant sur "J'accepte", vous autorisez l'utilisation de cookies, des identifiants d'appareils, des balises web ou d'autres technologies similaires. Vos paramètres peuvent être modifiés dans le navigateur de votre appareil.

Dans certains cas, des intérêts légitimes peuvent être invoqués plutôt qu'un consentement. Vous pouvez en savoir plus à ce sujet dans notre Politique de confidentialité et de cookies.